A7MSD KLAX-TAPA

Flight info

Callsign A7MSD
Flight time N/A
Altitude 41000
Route PNDAH2 TCATE DCT IPL DCT TFD J50 SSO J4 INK DCT ROOMY DCT BUMCO DCT TOPEZ DCT NAITE Q100 REMIS DCT EEVEN DCT SKIPS Y290 HAGIT Y308 ACONY Y280 MLIZA DCT ANU
Aircraft B77L/H-SDE1E2E3FGHIJ2J3J4J5M1RWXY/LB1D1

Departure

Time 2026-04-24 07:06
Airport Los Angeles International Airport (KLAX)

Arrival

Time N/A
Airport V. C. Bird International Airport (TAPA)
Time Latitude Longitude Altitude Speed Heading
2026-04-24 06:40 33.93289 -118.39912 99 ft 0 kts 360°
2026-04-24 06:57 33.93292 -118.39912 97 ft 1 kts 360°
2026-04-24 06:58 33.93308 -118.39912 102 ft 3 kts 360°
2026-04-24 06:58 33.93334 -118.39906 100 ft 4 kts 22°
2026-04-24 06:58 33.93358 -118.39879 100 ft 5 kts 50°
2026-04-24 06:58 33.93375 -118.39835 100 ft 6 kts 75°
2026-04-24 06:59 33.93395 -118.39818 99 ft 0 kts
2026-04-24 07:00 33.93397 -118.39818 97 ft 1 kts
2026-04-24 07:00 33.93421 -118.39817 99 ft 5 kts
2026-04-24 07:00 33.93450 -118.39800 98 ft 6 kts 56°
2026-04-24 07:01 33.93463 -118.39752 100 ft 7 kts 82°
2026-04-24 07:01 33.93470 -118.39689 99 ft 8 kts 82°
2026-04-24 07:01 33.93477 -118.39616 101 ft 9 kts 83°
2026-04-24 07:01 33.93485 -118.39535 98 ft 10 kts 83°
2026-04-24 07:02 33.93494 -118.39442 99 ft 12 kts 83°
2026-04-24 07:02 33.93504 -118.39340 97 ft 13 kts 83°
2026-04-24 07:02 33.93517 -118.39220 99 ft 15 kts 83°
2026-04-24 07:02 33.93530 -118.39096 98 ft 15 kts 83°
2026-04-24 07:03 33.93543 -118.38966 98 ft 16 kts 83°
2026-04-24 07:03 33.93558 -118.38824 97 ft 17 kts 83°
2026-04-24 07:03 33.93573 -118.38679 98 ft 18 kts 83°
2026-04-24 07:03 33.93584 -118.38563 98 ft 11 kts 83°
2026-04-24 07:04 33.93593 -118.38478 98 ft 9 kts 83°
2026-04-24 07:04 33.93601 -118.38404 98 ft 9 kts 83°
2026-04-24 07:04 33.93608 -118.38329 101 ft 8 kts 83°
2026-04-24 07:04 33.93629 -118.38289 101 ft 4 kts 33°
2026-04-24 07:05 33.93655 -118.38279 103 ft 4 kts 14°
2026-04-24 07:05 33.93683 -118.38280 102 ft 4 kts 353°
2026-04-24 07:05 33.93713 -118.38289 103 ft 7 kts 334°
2026-04-24 07:05 33.93727 -118.38372 103 ft 16 kts 259°
2026-04-24 07:06 33.93687 -118.38724 99 ft 82 kts 264°
2026-04-24 07:06 33.93582 -118.39745 106 ft 159 kts 262°
2026-04-24 07:06 33.93442 -118.41124 725 ft 170 kts 263°
2026-04-24 07:06 33.93310 -118.42581 1628 ft 172 kts 263°
2026-04-24 07:07 33.93160 -118.44050 2473 ft 182 kts 263°
2026-04-24 07:07 33.92996 -118.45650 2987 ft 208 kts 261°
2026-04-24 07:07 33.91084 -118.48826 3828 ft 259 kts 225°
2026-04-24 07:08 33.89873 -118.50412 4862 ft 263 kts 231°
2026-04-24 07:08 33.88722 -118.52138 5912 ft 269 kts 232°
2026-04-24 07:08 33.87546 -118.53927 6948 ft 273 kts 231°
2026-04-24 07:08 33.86158 -118.55443 7869 ft 278 kts 208°
2026-04-24 07:09 33.84251 -118.55942 8950 ft 284 kts 180°
2026-04-24 07:09 33.82337 -118.55552 9839 ft 290 kts 170°
2026-04-24 07:09 33.80277 -118.54981 10554 ft 308 kts 170°
2026-04-24 07:09 33.78079 -118.54370 10841 ft 341 kts 170°
2026-04-24 07:10 33.75702 -118.53715 11531 ft 358 kts 171°
2026-04-24 07:10 33.73260 -118.53048 12580 ft 366 kts 171°
2026-04-24 07:10 33.70768 -118.52227 13607 ft 374 kts 160°
2026-04-24 07:10 33.68597 -118.50390 14524 ft 393 kts 136°
2026-04-24 07:11 33.66944 -118.47809 15469 ft 399 kts 129°
2026-04-24 07:11 33.65306 -118.45111 16431 ft 406 kts 129°
2026-04-24 07:11 33.63617 -118.42344 17525 ft 411 kts 129°
2026-04-24 07:11 33.61905 -118.39550 18580 ft 416 kts 130°
2026-04-24 07:12 33.60202 -118.36784 19431 ft 422 kts 130°
2026-04-24 07:12 33.58419 -118.33902 20254 ft 430 kts 130°
2026-04-24 07:12 33.56632 -118.31022 21098 ft 437 kts 130°
2026-04-24 07:12 33.54790 -118.28061 21935 ft 443 kts 130°
2026-04-24 07:13 33.52926 -118.25067 22819 ft 450 kts 131°
2026-04-24 07:13 33.51035 -118.22036 23653 ft 457 kts 131°
2026-04-24 07:13 33.49114 -118.18959 24319 ft 463 kts 131°
2026-04-24 07:13 33.47164 -118.15840 25010 ft 470 kts 131°
2026-04-24 07:14 33.45197 -118.12694 25682 ft 476 kts 131°
2026-04-24 07:14 33.43232 -118.09554 26345 ft 482 kts 131°
2026-04-24 07:14 33.41196 -118.06304 27038 ft 489 kts 131°
2026-04-24 07:14 33.39849 -118.04154 27474 ft 493 kts 131°
2026-04-24 07:15 33.37081 -117.99742 28268 ft 502 kts 131°
2026-04-24 07:15 33.34944 -117.96338 28855 ft 509 kts 131°
2026-04-24 07:15 33.32802 -117.92931 29502 ft 515 kts 131°
2026-04-24 07:15 33.30635 -117.89485 30122 ft 521 kts 131°
2026-04-24 07:16 33.29163 -117.87145 30476 ft 524 kts 131°
2026-04-24 07:16 33.26239 -117.82502 31199 ft 529 kts 132°
2026-04-24 07:16 33.24766 -117.80166 31552 ft 531 kts 132°
2026-04-24 07:16 33.22563 -117.76597 32055 ft 537 kts 128°
2026-04-24 07:17 33.20757 -117.72657 32611 ft 546 kts 117°
2026-04-24 07:17 33.19507 -117.68354 33276 ft 549 kts 108°
2026-04-24 07:17 33.18757 -117.63975 33923 ft 551 kts 98°
2026-04-24 07:17 33.18463 -117.59321 34406 ft 552 kts 95°
2026-04-24 07:18 33.18250 -117.54729 34857 ft 554 kts 94°
2026-04-24 07:18 33.18045 -117.50148 35360 ft 553 kts 95°
2026-04-24 07:18 33.17827 -117.45560 35885 ft 553 kts 95°
2026-04-24 07:18 33.17590 -117.40979 36376 ft 553 kts 95°
2026-04-24 07:19 33.17334 -117.36396 36855 ft 553 kts 96°
2026-04-24 07:19 33.17067 -117.31831 37321 ft 553 kts 96°
2026-04-24 07:19 33.16794 -117.27308 37797 ft 553 kts 96°
2026-04-24 07:19 33.16511 -117.22682 38275 ft 552 kts 96°
2026-04-24 07:20 33.16234 -117.18170 38721 ft 553 kts 96°
2026-04-24 07:20 33.15951 -117.13583 39051 ft 554 kts 96°
2026-04-24 07:20 33.15381 -117.04355 39033 ft 557 kts 96°
2026-04-24 07:21 33.14813 -116.95182 39025 ft 551 kts 97°
2026-04-24 07:21 33.14241 -116.86074 39032 ft 551 kts 97°
2026-04-24 07:22 33.13642 -116.76925 39031 ft 558 kts 97°
2026-04-24 07:22 33.12991 -116.67645 39031 ft 570 kts 97°
2026-04-24 07:23 33.12356 -116.58246 39013 ft 572 kts 97°
2026-04-24 07:23 33.11732 -116.48731 38984 ft 572 kts 96°
2026-04-24 07:24 33.11110 -116.39276 38988 ft 570 kts 96°
2026-04-24 07:24 33.10481 -116.29880 38974 ft 567 kts 97°
2026-04-24 07:25 33.09843 -116.20517 38954 ft 564 kts 96°
2026-04-24 07:25 33.09202 -116.11211 38937 ft 561 kts 96°
2026-04-24 07:26 33.08561 -116.02003 38934 ft 561 kts 97°
2026-04-24 07:26 33.07909 -115.92740 38931 ft 561 kts 97°
2026-04-24 07:27 33.07249 -115.83460 38904 ft 562 kts 97°
2026-04-24 07:27 33.06580 -115.74146 38892 ft 563 kts 97°
2026-04-24 07:28 33.05904 -115.64833 38897 ft 564 kts 97°
2026-04-24 07:28 33.05219 -115.55492 38897 ft 566 kts 97°
2026-04-24 07:29 33.04531 -115.46202 38897 ft 566 kts 97°
2026-04-24 07:29 33.03831 -115.36845 38863 ft 567 kts 97°
2026-04-24 07:30 33.03123 -115.27475 38899 ft 568 kts 97°
2026-04-24 07:30 33.02406 -115.18094 38906 ft 569 kts 97°
2026-04-24 07:31 33.01682 -115.08696 38906 ft 569 kts 97°
2026-04-24 07:31 33.00953 -114.99346 38919 ft 570 kts 97°
2026-04-24 07:32 33.00213 -114.89930 38908 ft 571 kts 97°
2026-04-24 07:32 32.99465 -114.80507 38902 ft 571 kts 97°
2026-04-24 07:33 32.98709 -114.71082 38895 ft 571 kts 97°
2026-04-24 07:33 32.97950 -114.61694 38904 ft 570 kts 97°
2026-04-24 07:34 32.97181 -114.52279 38882 ft 570 kts 98°
2026-04-24 07:34 32.96406 -114.42887 38908 ft 569 kts 98°
2026-04-24 07:35 32.95630 -114.33570 38914 ft 571 kts 98°
2026-04-24 07:35 32.94839 -114.24149 38898 ft 572 kts 98°
2026-04-24 07:36 32.94039 -114.14714 38900 ft 572 kts 98°
2026-04-24 07:36 32.93237 -114.05331 38888 ft 572 kts 98°
2026-04-24 07:37 32.92424 -113.95908 38898 ft 571 kts 98°
2026-04-24 07:37 32.91606 -113.86502 38894 ft 570 kts 98°
2026-04-24 07:38 32.90784 -113.77138 38895 ft 569 kts 98°
2026-04-24 07:38 32.89963 -113.67873 38864 ft 568 kts 98°
2026-04-24 07:39 32.89128 -113.58524 38882 ft 568 kts 98°
2026-04-24 07:39 32.88284 -113.49159 38888 ft 568 kts 98°
2026-04-24 07:40 32.87433 -113.39798 38908 ft 569 kts 98°
2026-04-24 07:40 32.86575 -113.30431 38898 ft 569 kts 98°
2026-04-24 07:41 32.85707 -113.21037 38889 ft 570 kts 98°
2026-04-24 07:41 32.84846 -113.11785 38898 ft 570 kts 98°
2026-04-24 07:42 32.83964 -113.02389 38909 ft 570 kts 98°
2026-04-24 07:42 32.83074 -112.92985 38912 ft 570 kts 98°
2026-04-24 07:43 32.82178 -112.83606 38883 ft 571 kts 98°
2026-04-24 07:43 32.81276 -112.74227 38936 ft 571 kts 99°
2026-04-24 07:44 32.80370 -112.64884 38928 ft 572 kts 99°
2026-04-24 07:44 32.79451 -112.55476 38929 ft 574 kts 99°
2026-04-24 07:45 32.78522 -112.46047 38898 ft 575 kts 99°
2026-04-24 07:45 32.77585 -112.36603 38909 ft 575 kts 99°
2026-04-24 07:46 32.76640 -112.27154 38902 ft 576 kts 99°
2026-04-24 07:46 32.75689 -112.17712 38910 ft 575 kts 99°
2026-04-24 07:47 32.74738 -112.08358 38904 ft 575 kts 99°
2026-04-24 07:47 32.73772 -111.98908 38917 ft 573 kts 99°
2026-04-24 07:48 32.72803 -111.89512 38921 ft 573 kts 99°
2026-04-24 07:48 32.71826 -111.80113 38939 ft 573 kts 99°
2026-04-24 07:49 32.70842 -111.70711 38928 ft 575 kts 99°
2026-04-24 07:49 32.69846 -111.61269 38920 ft 576 kts 99°
2026-04-24 07:50 32.68845 -111.51833 38944 ft 576 kts 99°
2026-04-24 07:50 32.67840 -111.42442 38963 ft 577 kts 99°
2026-04-24 07:51 32.66822 -111.32987 38968 ft 577 kts 99°
2026-04-24 07:51 32.65793 -111.23509 38965 ft 577 kts 99°
2026-04-24 07:52 32.64767 -111.14115 38948 ft 577 kts 99°
2026-04-24 07:52 32.63726 -111.04655 38911 ft 577 kts 100°
2026-04-24 07:53 32.62679 -110.95212 38892 ft 577 kts 100°
2026-04-24 07:53 32.61623 -110.85743 38914 ft 578 kts 100°
2026-04-24 07:54 32.60567 -110.76343 38905 ft 578 kts 100°
2026-04-24 07:54 32.59496 -110.66870 38901 ft 578 kts 100°
2026-04-24 07:55 32.58290 -110.57443 38913 ft 576 kts 105°
2026-04-24 07:55 32.56223 -110.48309 38928 ft 573 kts 110°
2026-04-24 07:56 32.54007 -110.39233 38908 ft 573 kts 110°
2026-04-24 07:56 32.51837 -110.30187 38877 ft 574 kts 110°
2026-04-24 07:57 32.49695 -110.21118 38922 ft 573 kts 110°
2026-04-24 07:57 32.47549 -110.12007 38929 ft 575 kts 109°
2026-04-24 07:58 32.45375 -110.02833 38917 ft 577 kts 110°
2026-04-24 07:58 32.43197 -109.93691 38918 ft 578 kts 110°
2026-04-24 07:59 32.41004 -109.84529 38911 ft 580 kts 110°
2026-04-24 07:59 32.38801 -109.75351 38896 ft 581 kts 110°
2026-04-24 08:00 32.36582 -109.66136 38843 ft 581 kts 110°
2026-04-24 08:00 32.34362 -109.56949 38882 ft 582 kts 110°
2026-04-24 08:01 32.32125 -109.47729 38881 ft 583 kts 110°
2026-04-24 08:01 32.29893 -109.38553 38877 ft 584 kts 110°
2026-04-24 08:02 32.27655 -109.29339 38876 ft 584 kts 109°
2026-04-24 08:02 32.26134 -109.19862 38866 ft 589 kts 98°
2026-04-24 08:03 32.25289 -109.10241 38876 ft 589 kts 97°
2026-04-24 08:03 32.24455 -109.00677 38872 ft 589 kts 98°
2026-04-24 08:04 32.23553 -108.91058 38859 ft 588 kts 98°
2026-04-24 08:04 32.22773 -108.83079 38867 ft 587 kts 98°
2026-04-24 08:05 32.21826 -108.73487 38875 ft 589 kts 98°
2026-04-24 08:05 32.20873 -108.63856 38867 ft 591 kts 98°
2026-04-24 08:06 32.19922 -108.54270 38869 ft 591 kts 98°
2026-04-24 08:06 32.18952 -108.44569 38870 ft 591 kts 99°
2026-04-24 08:07 32.17989 -108.35017 38871 ft 592 kts 99°
2026-04-24 08:07 32.17005 -108.25337 38861 ft 591 kts 99°
2026-04-24 08:08 32.16017 -108.15689 38867 ft 591 kts 99°
2026-04-24 08:09 32.14525 -108.01252 38861 ft 590 kts 99°
2026-04-24 08:09 32.13522 -107.91646 38864 ft 590 kts 99°
2026-04-24 08:10 32.12517 -107.82089 38860 ft 590 kts 99°
2026-04-24 08:10 32.12011 -107.77299 38985 ft 590 kts 99°
2026-04-24 08:10 32.11500 -107.72489 39005 ft 589 kts 99°
2026-04-24 08:11 32.10477 -107.62896 38986 ft 590 kts 99°
2026-04-24 08:11 32.09451 -107.53352 38938 ft 589 kts 99°
2026-04-24 08:12 32.08407 -107.43704 38893 ft 589 kts 99°
2026-04-24 08:12 32.07362 -107.34119 38854 ft 589 kts 99°
2026-04-24 08:13 32.06316 -107.24595 38852 ft 589 kts 99°
2026-04-24 08:13 32.05253 -107.14988 38874 ft 590 kts 99°
2026-04-24 08:14 32.04185 -107.05391 38902 ft 590 kts 99°
2026-04-24 08:14 32.03116 -106.95858 38906 ft 591 kts 100°
2026-04-24 08:15 32.02029 -106.86230 38950 ft 591 kts 100°
2026-04-24 08:15 32.00936 -106.76624 38975 ft 591 kts 100°
2026-04-24 08:16 31.99848 -106.67117 39015 ft 594 kts 100°
2026-04-24 08:16 31.98728 -106.57397 39040 ft 595 kts 100°
2026-04-24 08:16 31.98168 -106.52559 39249 ft 593 kts 100°
2026-04-24 08:17 31.97617 -106.47819 39464 ft 592 kts 100°
2026-04-24 08:17 31.97050 -106.42957 39708 ft 592 kts 100°
2026-04-24 08:17 31.96492 -106.38184 39961 ft 592 kts 100°
2026-04-24 08:17 31.95923 -106.33330 40219 ft 592 kts 100°
2026-04-24 08:18 31.95370 -106.28516 40446 ft 592 kts 98°
2026-04-24 08:18 31.95029 -106.23665 40659 ft 593 kts 92°
2026-04-24 08:18 31.94934 -106.18913 40847 ft 592 kts 91°
2026-04-24 08:19 31.94853 -106.09194 40866 ft 590 kts 91°
2026-04-24 08:19 31.94749 -105.99572 40789 ft 585 kts 91°
2026-04-24 08:20 31.94585 -105.90048 40787 ft 579 kts 91°
2026-04-24 08:20 31.94399 -105.80593 40797 ft 575 kts 91°
2026-04-24 08:21 31.94214 -105.71265 40788 ft 573 kts 91°
2026-04-24 08:21 31.94024 -105.61834 40778 ft 574 kts 91°
2026-04-24 08:22 31.93828 -105.52413 40780 ft 576 kts 91°
2026-04-24 08:22 31.93625 -105.42959 40750 ft 578 kts 91°
2026-04-24 08:23 31.93414 -105.33471 40775 ft 581 kts 92°
2026-04-24 08:23 31.93207 -105.23997 40773 ft 584 kts 91°
2026-04-24 08:24 31.93009 -105.14420 40779 ft 586 kts 91°
2026-04-24 08:24 31.92803 -105.04803 40776 ft 587 kts 91°
2026-04-24 08:25 31.92586 -104.95182 40777 ft 588 kts 91°
2026-04-24 08:25 31.92358 -104.85558 40767 ft 589 kts 91°
2026-04-24 08:26 31.92125 -104.75902 40768 ft 588 kts 91°
2026-04-24 08:26 31.91887 -104.66357 40774 ft 587 kts 91°
2026-04-24 08:27 31.91640 -104.56752 40763 ft 586 kts 91°
2026-04-24 08:27 31.91386 -104.47151 40761 ft 585 kts 91°
2026-04-24 08:28 31.91125 -104.37578 40761 ft 585 kts 92°
2026-04-24 08:28 31.90859 -104.28068 40754 ft 584 kts 92°
2026-04-24 08:29 31.90585 -104.18508 40800 ft 585 kts 92°
2026-04-24 08:29 31.90302 -104.08909 40743 ft 586 kts 92°
2026-04-24 08:30 31.90012 -103.99314 40732 ft 586 kts 92°
2026-04-24 08:30 31.89714 -103.89722 40719 ft 587 kts 92°
2026-04-24 08:31 31.89411 -103.80177 40736 ft 586 kts 92°
2026-04-24 08:31 31.89099 -103.70550 40720 ft 587 kts 92°
2026-04-24 08:32 31.88780 -103.60950 40717 ft 586 kts 92°
2026-04-24 08:32 31.88455 -103.51364 40713 ft 586 kts 92°
2026-04-24 08:33 31.88122 -103.41786 40714 ft 585 kts 92°
2026-04-24 08:33 31.87783 -103.32228 40723 ft 585 kts 92°
2026-04-24 08:34 31.87398 -103.22712 40723 ft 585 kts 95°
2026-04-24 08:34 31.86633 -103.13178 40720 ft 585 kts 97°
2026-04-24 08:35 31.85755 -103.03666 40726 ft 584 kts 97°
2026-04-24 08:35 31.84890 -102.94156 40727 ft 584 kts 96°
2026-04-24 08:36 31.84056 -102.84714 40724 ft 584 kts 96°
2026-04-24 08:36 31.83223 -102.75230 40763 ft 583 kts 96°
2026-04-24 08:37 31.82380 -102.65729 40789 ft 583 kts 96°
2026-04-24 08:37 31.81527 -102.56236 40821 ft 583 kts 96°
2026-04-24 08:38 31.80666 -102.46748 40845 ft 583 kts 96°
2026-04-24 08:38 31.79798 -102.37261 40863 ft 583 kts 97°
2026-04-24 08:39 31.78924 -102.27792 40833 ft 582 kts 97°
2026-04-24 08:39 31.78049 -102.18383 40732 ft 582 kts 97°
2026-04-24 08:40 31.77161 -102.08908 40736 ft 582 kts 97°
2026-04-24 08:40 31.76269 -101.99469 40717 ft 579 kts 97°
2026-04-24 08:41 31.75378 -101.90113 40732 ft 579 kts 97°
2026-04-24 08:41 31.74475 -101.80708 40732 ft 578 kts 97°
2026-04-24 08:42 31.73569 -101.71352 40746 ft 578 kts 97°
2026-04-24 08:42 31.72649 -101.61910 40739 ft 578 kts 97°
2026-04-24 08:43 31.71733 -101.52592 40737 ft 577 kts 97°
2026-04-24 08:43 31.70807 -101.43235 40742 ft 577 kts 97°
2026-04-24 08:44 31.69872 -101.33871 40743 ft 577 kts 97°
2026-04-24 08:44 31.68931 -101.24506 40746 ft 577 kts 97°
2026-04-24 08:45 31.67987 -101.15179 40741 ft 577 kts 97°
2026-04-24 08:45 31.67028 -101.05775 40745 ft 577 kts 98°
2026-04-24 08:46 31.66068 -100.96437 40742 ft 577 kts 98°
2026-04-24 08:46 31.65103 -100.87112 40748 ft 577 kts 98°
2026-04-24 08:47 31.64126 -100.77742 40738 ft 578 kts 98°
2026-04-24 08:47 31.63143 -100.68381 40750 ft 578 kts 98°
2026-04-24 08:48 31.62152 -100.59018 40764 ft 578 kts 98°
2026-04-24 08:48 31.61159 -100.49694 40780 ft 579 kts 98°
2026-04-24 08:49 31.60152 -100.40307 40771 ft 580 kts 98°
2026-04-24 08:49 31.59137 -100.30908 40744 ft 581 kts 98°
2026-04-24 08:50 31.58111 -100.21479 40747 ft 582 kts 98°
2026-04-24 08:50 31.57080 -100.12061 40752 ft 582 kts 98°
2026-04-24 08:51 31.56042 -100.02653 40755 ft 581 kts 98°
2026-04-24 08:51 31.55005 -99.93315 40755 ft 581 kts 98°
2026-04-24 08:52 31.53954 -99.83910 40754 ft 580 kts 98°
2026-04-24 08:52 31.52898 -99.74530 40756 ft 579 kts 98°
2026-04-24 08:53 31.52017 -99.66750 40764 ft 579 kts 98°
2026-04-24 08:53 31.50951 -99.57391 40762 ft 578 kts 98°
2026-04-24 08:54 31.49706 -99.46539 40766 ft 578 kts 98°
2026-04-24 08:54 31.48809 -99.38767 40775 ft 578 kts 98°
2026-04-24 08:55 31.47365 -99.29530 40794 ft 576 kts 104°
2026-04-24 08:55 31.45581 -99.20362 40752 ft 576 kts 104°
2026-04-24 08:56 31.43782 -99.11217 40786 ft 577 kts 104°
2026-04-24 08:56 31.42006 -99.02023 40770 ft 579 kts 104°
2026-04-24 08:57 31.40252 -98.92865 40783 ft 580 kts 104°
2026-04-24 08:57 31.38481 -98.83646 40780 ft 581 kts 104°
2026-04-24 08:58 31.36696 -98.74411 40785 ft 582 kts 104°
2026-04-24 08:58 31.34895 -98.65150 40785 ft 584 kts 104°
2026-04-24 08:59 31.33090 -98.55902 40793 ft 584 kts 104°
2026-04-24 08:59 31.31268 -98.46604 40786 ft 585 kts 104°
2026-04-24 09:00 31.29442 -98.37321 40802 ft 585 kts 104°
2026-04-24 09:00 31.27617 -98.28081 40828 ft 585 kts 104°
2026-04-24 09:01 31.25778 -98.18805 40773 ft 584 kts 104°
2026-04-24 09:01 31.23949 -98.09624 40822 ft 582 kts 104°
2026-04-24 09:02 31.22108 -98.00408 40810 ft 582 kts 104°
2026-04-24 09:02 31.20262 -97.91210 40812 ft 581 kts 104°
2026-04-24 09:03 31.18413 -97.82034 40795 ft 580 kts 104°
2026-04-24 09:03 31.16560 -97.72871 40798 ft 579 kts 104°
2026-04-24 09:04 31.14718 -97.63800 40797 ft 578 kts 104°
2026-04-24 09:04 31.12855 -97.54659 40823 ft 577 kts 103°
2026-04-24 09:05 31.10988 -97.45540 40827 ft 577 kts 104°
2026-04-24 09:05 31.09116 -97.36424 40825 ft 576 kts 104°
2026-04-24 09:06 31.07254 -97.27392 40823 ft 576 kts 104°
2026-04-24 09:06 31.05378 -97.18326 40819 ft 576 kts 104°
2026-04-24 09:07 31.03483 -97.09205 40793 ft 576 kts 104°
2026-04-24 09:07 31.00692 -96.95831 40800 ft 576 kts 104°
2026-04-24 09:08 30.98826 -96.86733 40796 ft 575 kts 98°
2026-04-24 09:08 30.98654 -96.82163 40785 ft 568 kts 79°
2026-04-24 09:08 30.99506 -96.77731 40816 ft 555 kts 63°
2026-04-24 09:09 31.01103 -96.73727 40815 ft 540 kts 50°
2026-04-24 09:09 31.03275 -96.70339 40811 ft 525 kts 41°
2026-04-24 09:09 31.07885 -96.63576 40841 ft 531 kts 43°
2026-04-24 09:10 31.12389 -96.56698 40811 ft 535 kts 44°
2026-04-24 09:10 31.16763 -96.49895 40806 ft 538 kts 44°
2026-04-24 09:11 31.21203 -96.42884 40806 ft 539 kts 45°
2026-04-24 09:11 31.25684 -96.35861 40814 ft 538 kts 44°
2026-04-24 09:12 31.30167 -96.28892 40802 ft 536 kts 44°
2026-04-24 09:12 31.34652 -96.21926 40816 ft 535 kts 44°
2026-04-24 09:13 31.38728 -96.14582 40847 ft 541 kts 51°
2026-04-24 09:13 31.42551 -96.06971 40834 ft 541 kts 52°
2026-04-24 09:14 31.46346 -95.99398 40836 ft 539 kts 52°
2026-04-24 09:14 31.50173 -95.91845 40827 ft 537 kts 51°
2026-04-24 09:15 31.53998 -95.84337 40835 ft 535 kts 51°
2026-04-24 09:15 31.57811 -95.76835 40842 ft 535 kts 51°
2026-04-24 09:16 31.61885 -95.69614 40842 ft 528 kts 46°
2026-04-24 09:16 31.66225 -95.62687 40832 ft 527 kts 45°
2026-04-24 09:17 31.78079 -95.43581 40819 ft 527 kts 46°
2026-04-24 09:17 31.95129 -95.15611 40818 ft 525 kts 46°
2026-04-24 09:18 32.11991 -94.87770 40816 ft 523 kts 47°
2026-04-24 09:18 32.40909 -94.39571 40908 ft 517 kts 49°
2026-04-24 09:19 32.73783 -93.83959 40862 ft 511 kts 50°
2026-04-24 09:19 32.98816 -93.41090 40857 ft 509 kts 50°
2026-04-24 09:20 33.02837 -93.34142 40865 ft 508 kts 50°
2026-04-24 09:20 33.06851 -93.27203 40858 ft 508 kts 51°
2026-04-24 09:21 33.10838 -93.20304 40852 ft 509 kts 51°
2026-04-24 09:21 33.30503 -92.86093 40892 ft 510 kts 52°
2026-04-24 09:22 33.62617 -92.29488 40876 ft 509 kts 52°
2026-04-24 09:22 33.92680 -91.75724 38494 ft 446 kts 53°
2026-04-24 09:23 34.06046 -91.51429 34528 ft 428 kts 51°
2026-04-24 09:23 34.19083 -91.27813 30599 ft 418 kts 51°
2026-04-24 09:23 34.31671 -91.04785 27101 ft 396 kts 54°
2026-04-24 09:23 34.43476 -90.82953 23997 ft 379 kts 54°
2026-04-24 09:24 34.54666 -90.62199 20932 ft 357 kts 54°
2026-04-24 09:24 34.63786 -90.45192 18246 ft 343 kts 54°
2026-04-24 09:24 34.65084 -90.42762 17792 ft 342 kts 54°
2026-04-24 09:24 34.66366 -90.40363 17357 ft 340 kts 54°
2026-04-24 09:25 34.67639 -90.37976 16956 ft 337 kts 54°
2026-04-24 09:25 34.68918 -90.35578 16617 ft 332 kts 54°
2026-04-24 09:25 34.70163 -90.33243 16245 ft 328 kts 54°
2026-04-24 09:25 34.71388 -90.30945 15839 ft 326 kts 54°
2026-04-24 09:26 34.72606 -90.28658 15445 ft 324 kts 54°
2026-04-24 09:26 34.73817 -90.26383 15064 ft 322 kts 54°
2026-04-24 09:26 34.75046 -90.24072 14645 ft 320 kts 54°
2026-04-24 09:26 34.76252 -90.21805 14242 ft 318 kts 54°
2026-04-24 09:27 34.77450 -90.19550 13887 ft 315 kts 54°
2026-04-24 09:27 34.78634 -90.17318 13492 ft 313 kts 54°
2026-04-24 09:27 34.79812 -90.15100 13090 ft 310 kts 54°
2026-04-24 09:27 34.80978 -90.12902 12668 ft 309 kts 54°
2026-04-24 09:28 34.82141 -90.10709 12251 ft 306 kts 55°
2026-04-24 09:28 34.83295 -90.08529 11828 ft 305 kts 55°
2026-04-24 09:28 34.84433 -90.06377 11424 ft 303 kts 55°
2026-04-24 09:28 34.85563 -90.04242 11033 ft 300 kts 55°
2026-04-24 09:29 34.86687 -90.02116 10652 ft 298 kts 56°
2026-04-24 09:29 34.87798 -90.00014 10354 ft 292 kts 56°
2026-04-24 09:29 34.88883 -89.97959 10130 ft 284 kts 56°
2026-04-24 09:29 34.89933 -89.95969 9831 ft 280 kts 57°
2026-04-24 09:30 34.90993 -89.93961 9386 ft 279 kts 57°
2026-04-24 09:30 34.92045 -89.91966 8849 ft 283 kts 57°
2026-04-24 09:30 34.93116 -89.89933 8449 ft 282 kts 58°
2026-04-24 09:30 34.94128 -89.88017 8312 ft 268 kts 56°
2026-04-24 09:31 34.95451 -89.86468 8157 ft 251 kts 25°
2026-04-24 09:31 34.97041 -89.85902 8050 ft 235 kts
2026-04-24 09:31 34.98663 -89.85845 7992 ft 237 kts 357°
2026-04-24 09:31 35.00357 -89.85895 7884 ft 245 kts 356°
2026-04-24 09:32 35.02077 -89.85955 7526 ft 251 kts 356°
2026-04-24 09:32 35.03819 -89.86002 7144 ft 252 kts 357°
2026-04-24 09:32 35.05569 -89.86042 6765 ft 252 kts 356°
2026-04-24 09:32 35.07356 -89.86081 6364 ft 253 kts 356°
2026-04-24 09:33 35.09102 -89.86120 5986 ft 254 kts 356°
2026-04-24 09:33 35.10871 -89.86158 5589 ft 255 kts 356°
2026-04-24 09:33 35.12653 -89.86196 5205 ft 256 kts 355°
2026-04-24 09:33 35.14452 -89.86235 4813 ft 258 kts 356°
2026-04-24 09:34 35.16242 -89.86299 4388 ft 253 kts 349°
2026-04-24 09:34 35.17840 -89.87023 3960 ft 241 kts 316°
2026-04-24 09:34 35.18815 -89.88513 3885 ft 225 kts 284°
2026-04-24 09:34 35.19111 -89.90340 3217 ft 213 kts 269°
2026-04-24 09:35 35.19271 -89.92132 2996 ft 207 kts 269°
2026-04-24 09:35 35.19435 -89.93808 2972 ft 190 kts 269°
2026-04-24 09:35 35.19458 -89.95309 2987 ft 167 kts 247°
2026-04-24 09:35 35.18756 -89.96369 2894 ft 166 kts 208°
2026-04-24 09:36 35.17669 -89.96828 2717 ft 165 kts 201°
2026-04-24 09:36 35.16584 -89.97199 2509 ft 162 kts 194°
2026-04-24 09:36 35.15468 -89.97353 2343 ft 159 kts 191°
2026-04-24 09:36 35.14395 -89.97456 2123 ft 148 kts 187°
2026-04-24 09:37 35.13431 -89.97466 1935 ft 126 kts 186°
2026-04-24 09:37 35.12630 -89.97455 1782 ft 110 kts 187°
2026-04-24 09:37 35.11882 -89.97443 1664 ft 110 kts 187°
2026-04-24 09:37 35.11094 -89.97435 1495 ft 119 kts 186°
2026-04-24 09:38 35.10249 -89.97401 1352 ft 122 kts 185°
2026-04-24 09:38 35.09395 -89.97389 1198 ft 122 kts 184°
2026-04-24 09:38 35.08521 -89.97376 1041 ft 127 kts 182°
2026-04-24 09:38 35.07616 -89.97351 936 ft 132 kts 180°
2026-04-24 09:39 35.06712 -89.97326 810 ft 129 kts 183°
2026-04-24 09:39 35.05812 -89.97326 591 ft 121 kts 181°
2026-04-24 09:39 35.05016 -89.97299 394 ft 111 kts 180°
2026-04-24 09:39 35.04287 -89.97286 333 ft 95 kts 179°
2026-04-24 09:40 35.03738 -89.97270 333 ft 61 kts 179°
2026-04-24 09:40 35.03547 -89.97267 332 ft 34 kts 179°
2026-04-24 09:40 35.03377 -89.97274 332 ft 20 kts 190°
2026-04-24 09:40 35.03240 -89.97329 331 ft 6 kts 210°
2026-04-24 09:41 35.03217 -89.97374 330 ft 7 kts 266°
2026-04-24 09:41 35.03246 -89.97427 330 ft 9 kts 336°
2026-04-24 09:41 35.03292 -89.97438 328 ft 11 kts 356°
2026-04-24 09:41 35.03376 -89.97444 328 ft 13 kts 358°
2026-04-24 09:42 35.03473 -89.97445 330 ft 15 kts
2026-04-24 09:42 35.03585 -89.97445 329 ft 17 kts
2026-04-24 09:42 35.03711 -89.97446 327 ft 19 kts 357°
2026-04-24 09:42 35.03846 -89.97454 330 ft 20 kts 357°
2026-04-24 09:43 35.03988 -89.97456 331 ft 21 kts 360°
2026-04-24 09:43 35.04138 -89.97458 331 ft 22 kts 359°
2026-04-24 09:43 35.04294 -89.97463 331 ft 23 kts 358°
2026-04-24 09:43 35.04452 -89.97465 330 ft 22 kts 359°
2026-04-24 09:44 35.04612 -89.97466 328 ft 24 kts 359°
2026-04-24 09:44 35.04732 -89.97468 330 ft 17 kts 358°
2026-04-24 09:44 35.04825 -89.97472 329 ft 11 kts 358°
2026-04-24 09:44 35.04869 -89.97430 331 ft 8 kts 82°
2026-04-24 09:45 35.04871 -89.97361 330 ft 9 kts 88°
2026-04-24 09:45 35.04873 -89.97288 331 ft 9 kts 89°
2026-04-24 09:45 35.04873 -89.97206 332 ft 10 kts 89°
2026-04-24 09:45 35.04878 -89.97113 332 ft 10 kts 74°
2026-04-24 09:46 35.04932 -89.97067 330 ft 11 kts 358°
2026-04-24 09:46 35.05013 -89.97070 333 ft 13 kts 358°
2026-04-24 09:46 35.05110 -89.97052 331 ft 15 kts 10°
2026-04-24 09:46 35.05221 -89.97031 333 ft 17 kts
2026-04-24 09:47 35.05348 -89.97007 332 ft 19 kts
2026-04-24 09:47 35.05470 -89.96984 332 ft 10 kts
2026-04-24 09:47 35.05516 -89.96970 331 ft 5 kts 31°
2026-04-24 09:47 35.05525 -89.96949 333 ft 2 kts 78°
2026-04-24 09:48 35.05521 -89.96909 332 ft 6 kts 98°
2026-04-24 09:48 35.05539 -89.96862 330 ft 4 kts 21°
2026-04-24 09:48 35.05561 -89.96849 330 ft 4 kts 36°
2026-04-24 09:48 35.05560 -89.96823 330 ft 3 kts 133°
2026-04-24 09:49 35.05551 -89.96822 333 ft 0 kts 179°